| time (UTC) | temp F | wind direction | speed MPH | gust MPH | rain 1hr in | rain 24hr in | rain mn in | humidity % | barometer mb |
| 20260507083524 | 59 | 78 | 3.0 | 9.0 | 0.00 | 0.00 | 0.00 | 66 | 1009.7 |
| 20260507083039 | 58 | 103 | 1.0 | 4.0 | 0.00 | 0.00 | 0.00 | 72 | 1009.7 |
| 20260507082528 | 57 | 230 | 0.0 | 1.0 | 0.00 | 0.00 | 0.00 | 74 | 1009.7 |
| 20260507082027 | 56 | 0 | 0.0 | 1.0 | 0.00 | 0.00 | 0.00 | 76 | 1009.8 |
| 20260507081544 | 54 | 0 | 0.0 | 2.0 | 0.00 | 0.00 | 0.00 | 79 | 1009.8 |
| 20260507081027 | 54 | 0 | 0.0 | 2.0 | 0.00 | 0.00 | 0.00 | 79 | 1009.8 |
| 20260507080530 | 53 | 283 | 0.0 | 0.0 | 0.00 | 0.00 | 0.00 | 79 | 1009.8 |
| 20260507080043 | 53 | 0 | 0.0 | 4.0 | 0.00 | 0.00 | 0.00 | 79 | 1009.8 |
| 20260507075525 | 53 | 0 | 1.0 | 4.0 | 0.00 | 0.00 | 0.00 | 79 | 1009.8 |
| 20260507075027 | 53 | 30 | 2.0 | 4.0 | 0.00 | 0.00 | 0.00 | 78 | 1009.7 |
| 20260507074541 | 52 | 15 | 1.0 | 4.0 | 0.00 | 0.00 | 0.00 | 78 | 1009.7 |
| 20260507074031 | 53 | 15 | 2.0 | 4.0 | 0.00 | 0.00 | 0.00 | 77 | 1009.7 |
| 20260507073525 | 53 | 346 | 2.0 | 3.0 | 0.00 | 0.00 | 0.00 | 77 | 1009.8 |
| 20260507073046 | 53 | 0 | 0.0 | 0.0 | 0.00 | 0.00 | 0.00 | 77 | 1009.7 |
| 20260507072528 | 53 | 0 | 0.0 | 1.0 | 0.00 | 0.00 | 0.00 | 77 | 1009.8 |
| 20260507072027 | 53 | 0 | 0.0 | 1.0 | 0.00 | 0.00 | 0.00 | 78 | 1009.8 |
| 20260507071539 | 52 | 0 | 0.0 | 1.0 | 0.00 | 0.00 | 0.00 | 79 | 1009.9 |
| 20260507071027 | 51 | 0 | 0.0 | 2.0 | 0.00 | 0.00 | 0.00 | 81 | 1009.8 |
| 20260507070527 | 50 | 0 | 0.0 | 2.0 | 0.00 | 0.00 | 0.00 | 81 | 1009.8 |
| 20260507070047 | 50 | 0 | 0.0 | 2.0 | 0.00 | 0.00 | 0.00 | 82 | 1009.9 |
| 20260507065527 | 49 | 0 | 0.0 | 3.0 | 0.00 | 0.00 | 0.00 | 82 | 1009.9 |
| 20260507065027 | 49 | 0 | 0.0 | 3.0 | 0.00 | 0.00 | 0.00 | 81 | 1009.8 |
| 20260507064604 | 49 | 47 | 0.0 | 2.0 | 0.00 | 0.00 | 0.00 | 81 | 1009.7 |
| 20260507064027 | 49 | 0 | 0.0 | 1.0 | 0.00 | 0.00 | 0.00 | 81 | 1009.5 |
| 20260507063526 | 49 | 0 | 0.0 | 1.0 | 0.00 | 0.00 | 0.00 | 81 | 1009.5 |
| 20260507063047 | 49 | 0 | 0.0 | 0.0 | 0.00 | 0.00 | 0.00 | 81 | 1009.5 |
| 20260507062531 | 49 | 0 | 0.0 | 1.0 | 0.00 | 0.00 | 0.00 | 81 | 1009.5 |
| 20260507062028 | 49 | 0 | 0.0 | 1.0 | 0.00 | 0.00 | 0.00 | 81 | 1009.3 |
| 20260507061541 | 49 | 0 | 0.0 | 1.0 | 0.00 | 0.00 | 0.00 | 81 | 1009.2 |
| 20260507061027 | 49 | 0 | 0.0 | 1.0 | 0.00 | 0.00 | 0.00 | 81 | 1009.1 |
| 20260507060527 | 49 | 0 | 0.0 | 1.0 | 0.00 | 0.00 | 0.00 | 81 | 1009.1 |
| 20260507060039 | 49 | 0 | 0.0 | 2.0 | 0.00 | 0.00 | 0.00 | 81 | 1009.2 |
| 20260507055528 | 49 | 0 | 0.0 | 2.0 | 0.00 | 0.00 | 0.00 | 81 | 1009.1 |
| 20260507055027 | 49 | 0 | 0.0 | 2.0 | 0.00 | 0.00 | 0.00 | 81 | 1009.1 |
| 20260507054539 | 49 | 0 | 0.0 | 1.0 | 0.00 | 0.00 | 0.00 | 80 | 1009.1 |
| 20260507054024 | 49 | 0 | 0.0 | 0.0 | 0.00 | 0.00 | 0.00 | 80 | 1009.0 |
| 20260507053527 | 49 | 0 | 0.0 | 3.0 | 0.00 | 0.00 | 0.00 | 80 | 1009.1 |
| 20260507053045 | 49 | 0 | 0.0 | 3.0 | 0.00 | 0.00 | 0.00 | 80 | 1009.0 |
| 20260507052527 | 49 | 138 | 0.0 | 3.0 | 0.00 | 0.00 | 0.00 | 79 | 1009.0 |
| 20260507052031 | 49 | 0 | 1.0 | 2.0 | 0.00 | 0.00 | 0.00 | 79 | 1009.0 |
| 20260507051540 | 49 | 0 | 0.0 | 0.0 | 0.00 | 0.00 | 0.00 | 79 | 1008.9 |
| 20260507051030 | 49 | 0 | 0.0 | 0.0 | 0.00 | 0.00 | 0.00 | 79 | 1008.8 |
| 20260507050524 | 49 | 0 | 0.0 | 0.0 | 0.00 | 0.00 | 0.00 | 79 | 1008.8 |
| 20260507050041 | 49 | 0 | 0.0 | 1.0 | 0.00 | 0.00 | 0.00 | 78 | 1008.7 |
| 20260507045528 | 49 | 0 | 0.0 | 1.0 | 0.00 | 0.00 | 0.00 | 78 | 1008.7 |
| 20260507045028 | 49 | 0 | 0.0 | 3.0 | 0.00 | 0.00 | 0.00 | 77 | 1008.8 |
| 20260507044540 | 50 | 0 | 0.0 | 5.0 | 0.00 | 0.00 | 0.00 | 78 | 1008.8 |
| 20260507044029 | 50 | 336 | 1.0 | 5.0 | 0.00 | 0.00 | 0.00 | 78 | 1008.8 |
| 20260507043527 | 51 | 0 | 0.0 | 4.0 | 0.00 | 0.00 | 0.00 | 78 | 1008.9 |
| 20260507043041 | 51 | 0 | 1.0 | 5.0 | 0.00 | 0.00 | 0.00 | 79 | 1008.7 |
| 20260507042528 | 51 | 232 | 1.0 | 9.0 | 0.00 | 0.00 | 0.00 | 79 | 1008.8 |
| 20260507042027 | 50 | 351 | 2.0 | 9.0 | 0.00 | 0.00 | 0.00 | 79 | 1008.6 |
| 20260507041545 | 51 | 228 | 4.0 | 9.0 | 0.00 | 0.00 | 0.00 | 78 | 1008.7 |
| 20260507041027 | 51 | 344 | 3.0 | 9.0 | 0.00 | 0.00 | 0.00 | 78 | 1008.3 |
| 20260507040527 | 51 | 22 | 1.0 | 8.0 | 0.00 | 0.00 | 0.00 | 78 | 1008.7 |
| 20260507040045 | 51 | 0 | 0.0 | 8.0 | 0.00 | 0.00 | 0.00 | 77 | 1009.0 |
| 20260507035526 | 50 | 238 | 4.0 | 9.0 | 0.00 | 0.00 | 0.00 | 77 | 1009.2 |
| 20260507035027 | 50 | 217 | 2.0 | 9.0 | 0.00 | 0.00 | 0.00 | 76 | 1009.2 |
| 20260507034544 | 50 | 219 | 4.0 | 9.0 | 0.00 | 0.00 | 0.00 | 76 | 1009.3 |
| 20260507034024 | 50 | 209 | 1.0 | 5.0 | 0.00 | 0.00 | 0.00 | 75 | 1009.2 |
| 20260507033525 | 50 | 0 | 0.0 | 3.0 | 0.00 | 0.00 | 0.00 | 75 | 1009.1 |
| 20260507033057 | 50 | 0 | 1.0 | 3.0 | 0.00 | 0.00 | 0.00 | 75 | 1009.0 |
| 20260507032524 | 50 | 245 | 0.0 | 3.0 | 0.00 | 0.00 | 0.00 | 75 | 1009.0 |
| 20260507032027 | 50 | 0 | 0.0 | 1.0 | 0.00 | 0.00 | 0.00 | 75 | 1008.9 |
| 20260507031539 | 50 | 0 | 0.0 | 1.0 | 0.00 | 0.00 | 0.00 | 75 | 1008.9 |
| 20260507031027 | 50 | 0 | 0.0 | 1.0 | 0.00 | 0.00 | 0.00 | 75 | 1009.0 |
| 20260507030528 | 50 | 0 | 0.0 | 2.0 | 0.00 | 0.00 | 0.00 | 75 | 1008.9 |
| 20260507030040 | 50 | 0 | 0.0 | 2.0 | 0.00 | 0.00 | 0.00 | 75 | 1008.8 |
| 20260507025528 | 50 | 0 | 0.0 | 2.0 | 0.00 | 0.00 | 0.00 | 75 | 1009.0 |
| 20260507025027 | 50 | 0 | 0.0 | 0.0 | 0.00 | 0.00 | 0.00 | 74 | 1009.0 |
| 20260507024543 | 50 | 0 | 0.0 | 0.0 | 0.00 | 0.00 | 0.00 | 74 | 1008.9 |
| 20260507024027 | 50 | 0 | 0.0 | 0.0 | 0.00 | 0.00 | 0.00 | 74 | 1009.0 |
| 20260507023527 | 50 | 0 | 0.0 | 2.0 | 0.00 | 0.00 | 0.00 | 73 | 1008.9 |
| 20260507023040 | 51 | 0 | 0.0 | 4.0 | 0.00 | 0.00 | 0.00 | 72 | 1009.0 |
| 20260507022527 | 51 | 244 | 0.0 | 4.0 | 0.00 | 0.00 | 0.00 | 72 | 1009.0 |
| 20260507022030 | 52 | 235 | 0.0 | 2.0 | 0.00 | 0.00 | 0.00 | 72 | 1009.1 |
| 20260507021540 | 52 | 0 | 0.0 | 0.0 | 0.00 | 0.00 | 0.00 | 72 | 1009.0 |
| 20260507021025 | 52 | 0 | 0.0 | 4.0 | 0.00 | 0.00 | 0.00 | 72 | 1009.0 |
| 20260507020525 | 52 | 0 | 0.0 | 5.0 | 0.00 | 0.00 | 0.00 | 72 | 1008.9 |
| 20260507020043 | 52 | 0 | 1.0 | 5.0 | 0.00 | 0.00 | 0.00 | 72 | 1009.1 |
| 20260507015527 | 52 | 223 | 0.0 | 5.0 | 0.00 | 0.00 | 0.00 | 71 | 1009.1 |
| 20260507015026 | 52 | 0 | 0.0 | 2.0 | 0.00 | 0.00 | 0.00 | 71 | 1009.1 |
| 20260507014543 | 52 | 0 | 0.0 | 3.0 | 0.00 | 0.00 | 0.00 | 71 | 1009.2 |
| 20260507014027 | 52 | 0 | 0.0 | 4.0 | 0.00 | 0.00 | 0.00 | 71 | 1009.2 |
| 20260507013524 | 53 | 231 | 1.0 | 4.0 | 0.00 | 0.00 | 0.00 | 71 | 1009.1 |
| 20260507013041 | 52 | 0 | 1.0 | 4.0 | 0.00 | 0.00 | 0.00 | 70 | 1009.2 |
| 20260507012525 | 52 | 0 | 0.0 | 4.0 | 0.00 | 0.00 | 0.00 | 69 | 1009.3 |
| 20260507012025 | 52 | 0 | 0.0 | 3.0 | 0.00 | 0.00 | 0.00 | 68 | 1009.2 |
| 20260507011540 | 53 | 0 | 0.0 | 3.0 | 0.00 | 0.00 | 0.00 | 68 | 1009.3 |
| 20260507011024 | 53 | 219 | 0.0 | 4.0 | 0.00 | 0.00 | 0.00 | 67 | 1009.3 |
| 20260507010528 | 53 | 219 | 2.0 | 4.0 | 0.00 | 0.00 | 0.00 | 67 | 1009.4 |
| 20260507010041 | 53 | 221 | 2.0 | 5.0 | 0.00 | 0.00 | 0.00 | 66 | 1009.4 |
| 20260507005525 | 53 | 221 | 1.0 | 5.0 | 0.00 | 0.00 | 0.00 | 65 | 1009.3 |
| 20260507005024 | 53 | 233 | 3.0 | 5.0 | 0.00 | 0.00 | 0.00 | 65 | 1009.4 |
| 20260507004538 | 53 | 225 | 2.0 | 4.0 | 0.00 | 0.00 | 0.00 | 65 | 1009.3 |
| 20260507004027 | 53 | 233 | 1.0 | 4.0 | 0.00 | 0.00 | 0.00 | 64 | 1009.4 |
| 20260507003526 | 53 | 233 | 1.0 | 4.0 | 0.00 | 0.00 | 0.00 | 63 | 1009.5 |
| 20260507003047 | 54 | 237 | 2.0 | 4.0 | 0.00 | 0.00 | 0.00 | 62 | 1009.4 |
| 20260507002528 | 54 | 240 | 2.0 | 4.0 | 0.00 | 0.00 | 0.00 | 61 | 1009.4 |
| 20260507002025 | 53 | 0 | 0.0 | 3.0 | 0.00 | 0.00 | 0.00 | 61 | 1009.4 |
| 20260507001603 | 54 | 0 | 1.0 | 5.0 | 0.00 | 0.00 | 0.00 | 61 | 1009.3 |
| 20260507001024 | 54 | 240 | 2.0 | 5.0 | 0.00 | 0.00 | 0.00 | 61 | 1009.5 |
| 20260507000524 | 54 | 240 | 3.0 | 5.0 | 0.00 | 0.00 | 0.00 | 60 | 1009.5 |
| 20260507000046 | 54 | 248 | 0.0 | 2.0 | 0.00 | 0.00 | 0.00 | 61 | 1009.5 |
| 20260506235528 | 54 | 0 | 0.0 | 0.0 | 0.00 | 0.00 | 0.00 | 60 | 1009.5 |
| 20260506235028 | 55 | 0 | 0.0 | 0.0 | 0.00 | 0.00 | 0.00 | 60 | 1009.5 |
| 20260506234549 | 55 | 0 | 0.0 | 0.0 | 0.00 | 0.00 | 0.00 | 60 | 1009.4 |
| 20260506234027 | 55 | 0 | 0.0 | 0.0 | 0.00 | 0.00 | 0.00 | 60 | 1009.5 |
| 20260506233524 | 55 | 0 | 0.0 | 0.0 | 0.00 | 0.00 | 0.00 | 60 | 1009.7 |
| 20260506233039 | 55 | 0 | 0.0 | 0.0 | 0.00 | 0.00 | 0.00 | 59 | 1009.7 |
| 20260506232526 | 55 | 0 | 0.0 | 0.0 | 0.00 | 0.00 | 0.00 | 59 | 1009.7 |
| 20260506232027 | 56 | 0 | 0.0 | 0.0 | 0.00 | 0.00 | 0.00 | 59 | 1009.7 |
| 20260506231539 | 56 | 0 | 0.0 | 0.0 | 0.00 | 0.00 | 0.00 | 59 | 1009.7 |
| 20260506231025 | 56 | 0 | 0.0 | 0.0 | 0.00 | 0.00 | 0.00 | 58 | 1009.6 |
| 20260506230528 | 56 | 0 | 0.0 | 2.0 | 0.00 | 0.00 | 0.00 | 58 | 1009.7 |
| 20260506230040 | 56 | 0 | 0.0 | 3.0 | 0.00 | 0.00 | 0.00 | 58 | 1009.5 |
| 20260506225531 | 56 | 248 | 0.0 | 4.0 | 0.00 | 0.00 | 0.00 | 58 | 1009.5 |
| 20260506225029 | 55 | 248 | 1.0 | 5.0 | 0.00 | 0.00 | 0.00 | 59 | 1009.5 |
| 20260506224557 | 55 | 247 | 2.0 | 5.0 | 0.00 | 0.00 | 0.00 | 60 | 1009.6 |
| 20260506224027 | 55 | 226 | 3.0 | 7.0 | 0.00 | 0.00 | 0.00 | 61 | 1009.6 |
| 20260506223527 | 55 | 217 | 4.0 | 7.0 | 0.00 | 0.00 | 0.00 | 60 | 1009.5 |
| 20260506223048 | 56 | 240 | 4.0 | 7.0 | 0.00 | 0.00 | 0.00 | 58 | 1009.6 |
| 20260506222528 | 58 | 279 | 0.0 | 2.0 | 0.00 | 0.00 | 0.00 | 56 | 1009.4 |
| 20260506222029 | 58 | 0 | 0.0 | 0.0 | 0.00 | 0.00 | 0.00 | 56 | 1009.4 |
| 20260506221546 | 58 | 0 | 0.0 | 0.0 | 0.00 | 0.00 | 0.00 | 55 | 1009.5 |
| 20260506221029 | 58 | 0 | 0.0 | 0.0 | 0.00 | 0.00 | 0.00 | 55 | 1009.3 |
| 20260506220528 | 58 | 0 | 0.0 | 0.0 | 0.00 | 0.00 | 0.00 | 55 | 1009.4 |
| 20260506220101 | 58 | 0 | 0.0 | 0.0 | 0.00 | 0.00 | 0.00 | 55 | 1009.4 |
| 20260506215527 | 59 | 0 | 0.0 | 0.0 | 0.00 | 0.00 | 0.00 | 55 | 1009.5 |
| 20260506215028 | 59 | 0 | 0.0 | 0.0 | 0.00 | 0.00 | 0.00 | 55 | 1009.4 |
| 20260506214539 | 59 | 0 | 0.0 | 0.0 | 0.00 | 0.00 | 0.00 | 53 | 1009.6 |
| 20260506214033 | 60 | 0 | 0.0 | 0.0 | 0.00 | 0.00 | 0.00 | 53 | 1009.4 |
| 20260506213528 | 60 | 0 | 0.0 | 0.0 | 0.00 | 0.00 | 0.00 | 53 | 1009.4 |
| 20260506213038 | 60 | 0 | 0.0 | 2.0 | 0.00 | 0.00 | 0.00 | 52 | 1009.4 |
| 20260506212529 | 60 | 0 | 0.0 | 2.0 | 0.00 | 0.00 | 0.00 | 52 | 1009.4 |
| 20260506212027 | 60 | 0 | 0.0 | 0.0 | 0.00 | 0.00 | 0.00 | 52 | 1009.4 |
| 20260506211552 | 61 | 0 | 0.0 | 0.0 | 0.00 | 0.00 | 0.00 | 52 | 1009.4 |
| 20260506211027 | 61 | 0 | 0.0 | 0.0 | 0.00 | 0.00 | 0.00 | 51 | 1009.4 |
| 20260506210527 | 61 | 0 | 0.0 | 0.0 | 0.00 | 0.00 | 0.00 | 50 | 1009.3 |
| 20260506210046 | 61 | 0 | 0.0 | 1.0 | 0.00 | 0.00 | 0.00 | 50 | 1009.3 |
| 20260506205527 | 61 | 0 | 0.0 | 2.0 | 0.00 | 0.00 | 0.00 | 49 | 1009.3 |
| 20260506205027 | 61 | 42 | 0.0 | 2.0 | 0.00 | 0.00 | 0.00 | 49 | 1009.3 |
| 20260506204542 | 61 | 0 | 0.0 | 0.0 | 0.00 | 0.00 | 0.00 | 49 | 1009.2 |
| 20260506204029 | 61 | 0 | 0.0 | 0.0 | 0.00 | 0.00 | 0.00 | 49 | 1009.2 |
| 20260506203528 | 62 | 0 | 0.0 | 0.0 | 0.00 | 0.00 | 0.00 | 49 | 1009.1 |
| 20260506203041 | 62 | 0 | 0.0 | 0.0 | 0.00 | 0.00 | 0.00 | 47 | 1009.0 |
| 20260506202528 | 62 | 0 | 0.0 | 0.0 | 0.00 | 0.00 | 0.00 | 47 | 1009.1 |
| 20260506202029 | 63 | 0 | 0.0 | 4.0 | 0.00 | 0.00 | 0.00 | 46 | 1009.0 |
| 20260506201548 | 63 | 0 | 0.0 | 4.0 | 0.00 | 0.00 | 0.00 | 46 | 1009.1 |
| 20260506201028 | 64 | 43 | 0.0 | 4.0 | 0.00 | 0.00 | 0.00 | 48 | 1009.0 |
| 20260506200531 | 64 | 0 | 0.0 | 0.0 | 0.00 | 0.00 | 0.00 | 47 | 1009.0 |
| 20260506200039 | 64 | 0 | 0.0 | 0.0 | 0.00 | 0.00 | 0.00 | 45 | 1008.9 |
| 20260506195531 | 65 | 0 | 0.0 | 0.0 | 0.00 | 0.00 | 0.00 | 44 | 1008.9 |
| 20260506195029 | 65 | 0 | 0.0 | 0.0 | 0.00 | 0.00 | 0.00 | 44 | 1008.8 |
| 20260506194544 | 65 | 0 | 0.0 | 0.0 | 0.00 | 0.00 | 0.00 | 44 | 1008.8 |
| 20260506194029 | 66 | 0 | 0.0 | 1.0 | 0.00 | 0.00 | 0.00 | 43 | 1008.9 |
| 20260506193528 | 66 | 0 | 0.0 | 1.0 | 0.00 | 0.00 | 0.00 | 44 | 1008.9 |
| 20260506193051 | 67 | 0 | 0.0 | 1.0 | 0.00 | 0.00 | 0.00 | 44 | 1008.9 |
| 20260506192527 | 68 | 202 | 0.0 | 1.0 | 0.00 | 0.00 | 0.00 | 43 | 1008.8 |
| 20260506192027 | 68 | 0 | 0.0 | 1.0 | 0.00 | 0.00 | 0.00 | 40 | 1008.8 |
| 20260506191539 | 69 | 0 | 0.0 | 1.0 | 0.00 | 0.00 | 0.00 | 40 | 1008.8 |
| 20260506191028 | 69 | 0 | 0.0 | 3.0 | 0.00 | 0.00 | 0.00 | 40 | 1008.9 |
| 20260506190529 | 70 | 322 | 1.0 | 3.0 | 0.00 | 0.00 | 0.00 | 38 | 1008.9 |
| 20260506190039 | 70 | 0 | 0.0 | 0.0 | 0.00 | 0.00 | 0.00 | 33 | 1008.8 |
| 20260506185527 | 70 | 0 | 0.0 | 0.0 | 0.00 | 0.00 | 0.00 | 33 | 1008.8 |
| 20260506185025 | 70 | 0 | 0.0 | 0.0 | 0.00 | 0.00 | 0.00 | 34 | 1008.8 |
| 20260506184547 | 70 | 0 | 0.0 | 0.0 | 0.00 | 0.00 | 0.00 | 35 | 1008.9 |
| 20260506184028 | 70 | 0 | 0.0 | 0.0 | 0.00 | 0.00 | 0.00 | 35 | 1008.8 |
| 20260506183531 | 70 | 0 | 0.0 | 1.0 | 0.00 | 0.00 | 0.00 | 35 | 1008.9 |
| 20260506183042 | 70 | 0 | 0.0 | 2.0 | 0.00 | 0.00 | 0.00 | 34 | 1008.9 |
| 20260506182528 | 69 | 0 | 0.0 | 2.0 | 0.00 | 0.00 | 0.00 | 38 | 1008.9 |
| 20260506182029 | 68 | 159 | 0.0 | 3.0 | 0.00 | 0.00 | 0.00 | 38 | 1008.9 |
| 20260506181554 | 68 | 0 | 0.0 | 3.0 | 0.00 | 0.00 | 0.00 | 39 | 1008.9 |
| 20260506181029 | 68 | 0 | 0.0 | 2.0 | 0.00 | 0.00 | 0.00 | 38 | 1008.9 |
| 20260506180529 | 68 | 0 | 0.0 | 2.0 | 0.00 | 0.00 | 0.00 | 38 | 1008.9 |
| 20260506180049 | 68 | 0 | 0.0 | 3.0 | 0.00 | 0.00 | 0.00 | 38 | 1008.9 |
| 20260506175530 | 68 | 0 | 0.0 | 3.0 | 0.00 | 0.00 | 0.00 | 39 | 1009.1 |
| 20260506175028 | 69 | 238 | 1.0 | 4.0 | 0.00 | 0.00 | 0.00 | 38 | 1009.0 |
| 20260506174546 | 69 | 315 | 1.0 | 5.0 | 0.00 | 0.00 | 0.00 | 37 | 1009.2 |
| 20260506174028 | 69 | 265 | 1.0 | 5.0 | 0.00 | 0.00 | 0.00 | 36 | 1009.3 |
| 20260506173529 | 70 | 146 | 3.0 | 5.0 | 0.00 | 0.00 | 0.00 | 35 | 1009.3 |
| 20260506173105 | 70 | 229 | 1.0 | 5.0 | 0.00 | 0.00 | 0.00 | 34 | 1009.3 |
| 20260506172529 | 71 | 138 | 1.0 | 6.0 | 0.00 | 0.00 | 0.00 | 34 | 1009.3 |
| 20260506172028 | 71 | 207 | 2.0 | 7.0 | 0.00 | 0.00 | 0.00 | 33 | 1009.3 |
| 20260506171546 | 71 | 198 | 3.0 | 7.0 | 0.00 | 0.00 | 0.00 | 34 | 1009.3 |
| 20260506171029 | 71 | 278 | 0.0 | 4.0 | 0.00 | 0.00 | 0.00 | 33 | 1009.3 |
| 20260506170529 | 70 | 291 | 0.0 | 6.0 | 0.00 | 0.00 | 0.00 | 33 | 1009.3 |
| 20260506170044 | 70 | 291 | 2.0 | 6.0 | 0.00 | 0.00 | 0.00 | 33 | 1009.4 |
| 20260506165528 | 70 | 278 | 2.0 | 8.0 | 0.00 | 0.00 | 0.00 | 34 | 1009.4 |
| 20260506165029 | 70 | 310 | 4.0 | 8.0 | 0.00 | 0.00 | 0.00 | 33 | 1009.5 |
| 20260506164539 | 70 | 281 | 3.0 | 11.0 | 0.00 | 0.00 | 0.00 | 34 | 1009.5 |
| 20260506164030 | 70 | 302 | 4.0 | 11.0 | 0.00 | 0.00 | 0.00 | 33 | 1009.5 |
| 20260506163527 | 71 | 278 | 4.0 | 9.0 | 0.00 | 0.00 | 0.00 | 33 | 1009.5 |
| 20260506163039 | 71 | 355 | 4.0 | 9.0 | 0.00 | 0.00 | 0.00 | 33 | 1009.6 |
| 20260506162528 | 71 | 36 | 1.0 | 8.0 | 0.00 | 0.00 | 0.00 | 33 | 1009.5 |
| 20260506162030 | 70 | 300 | 0.0 | 9.0 | 0.00 | 0.00 | 0.00 | 33 | 1009.6 |
| 20260506161539 | 70 | 0 | 4.0 | 9.0 | 0.00 | 0.00 | 0.00 | 33 | 1009.6 |
| 20260506161025 | 71 | 315 | 3.0 | 8.0 | 0.00 | 0.00 | 0.00 | 33 | 1009.6 |
| 20260506160529 | 71 | 343 | 4.0 | 9.0 | 0.00 | 0.00 | 0.00 | 33 | 1009.7 |
| 20260506160058 | 71 | 313 | 4.0 | 9.0 | 0.00 | 0.00 | 0.00 | 33 | 1009.7 |
| 20260506155524 | 71 | 288 | 4.0 | 8.0 | 0.00 | 0.00 | 0.00 | 33 | 1009.7 |
| 20260506155028 | 71 | 336 | 2.0 | 8.0 | 0.00 | 0.00 | 0.00 | 33 | 1009.7 |
| 20260506154544 | 71 | 305 | 4.0 | 9.0 | 0.00 | 0.00 | 0.00 | 32 | 1009.8 |
| 20260506154025 | 71 | 231 | 3.0 | 9.0 | 0.00 | 0.00 | 0.00 | 33 | 1009.7 |
| 20260506153528 | 71 | 242 | 1.0 | 9.0 | 0.00 | 0.00 | 0.00 | 33 | 1009.8 |
| 20260506153046 | 70 | 315 | 3.0 | 9.0 | 0.00 | 0.00 | 0.00 | 33 | 1009.8 |
| 20260506152524 | 70 | 293 | 6.0 | 9.0 | 0.00 | 0.00 | 0.00 | 33 | 1009.9 |
| 20260506152028 | 70 | 274 | 5.0 | 8.0 | 0.00 | 0.00 | 0.00 | 33 | 1009.9 |
| 20260506151539 | 70 | 0 | 3.0 | 8.0 | 0.00 | 0.00 | 0.00 | 34 | 1010.1 |
| 20260506151024 | 70 | 244 | 4.0 | 8.0 | 0.00 | 0.00 | 0.00 | 34 | 1010.1 |
| 20260506150524 | 69 | 0 | 2.0 | 7.0 | 0.00 | 0.00 | 0.00 | 34 | 1010.2 |
| 20260506150050 | 69 | 279 | 1.0 | 6.0 | 0.00 | 0.00 | 0.00 | 35 | 1010.2 |
| 20260506145525 | 69 | 314 | 4.0 | 10.0 | 0.00 | 0.00 | 0.00 | 34 | 1010.4 |
| 20260506145025 | 69 | 333 | 4.0 | 10.0 | 0.00 | 0.00 | 0.00 | 35 | 1010.5 |
| 20260506144545 | 70 | 329 | 2.0 | 9.0 | 0.00 | 0.00 | 0.00 | 36 | 1010.6 |
| 20260506144024 | 69 | 310 | 3.0 | 9.0 | 0.00 | 0.00 | 0.00 | 37 | 1010.7 |
| 20260506143525 | 69 | 273 | 1.0 | 9.0 | 0.00 | 0.00 | 0.00 | 37 | 1010.7 |
| 20260506143039 | 68 | 293 | 4.0 | 9.0 | 0.00 | 0.00 | 0.00 | 36 | 1010.8 |
| 20260506142526 | 68 | 331 | 5.0 | 9.0 | 0.00 | 0.00 | 0.00 | 38 | 1010.9 |
| 20260506142025 | 69 | 327 | 4.0 | 10.0 | 0.00 | 0.00 | 0.00 | 37 | 1010.8 |
| 20260506141540 | 70 | 83 | 0.0 | 10.0 | 0.00 | 0.00 | 0.00 | 37 | 1010.9 |
| 20260506141027 | 70 | 71 | 4.0 | 10.0 | 0.00 | 0.00 | 0.00 | 36 | 1011.0 |
| 20260506140525 | 71 | 282 | 1.0 | 7.0 | 0.00 | 0.00 | 0.00 | 34 | 1011.1 |
| 20260506140039 | 71 | 0 | 2.0 | 7.0 | 0.00 | 0.00 | 0.00 | 34 | 1011.1 |
| 20260506135525 | 71 | 189 | 1.0 | 9.0 | 0.00 | 0.00 | 0.00 | 34 | 1011.2 |
| 20260506135024 | 71 | 184 | 3.0 | 9.0 | 0.00 | 0.00 | 0.00 | 35 | 1011.3 |
| 20260506134538 | 70 | 171 | 3.0 | 7.0 | 0.00 | 0.00 | 0.00 | 36 | 1011.3 |
| 20260506134024 | 69 | 216 | 0.0 | 7.0 | 0.00 | 0.00 | 0.00 | 37 | 1011.4 |
| 20260506133529 | 69 | 147 | 3.0 | 6.0 | 0.00 | 0.00 | 0.00 | 37 | 1011.5 |
| 20260506133041 | 68 | 0 | 0.0 | 6.0 | 0.00 | 0.00 | 0.00 | 38 | 1011.5 |
| 20260506132525 | 67 | 250 | 1.0 | 7.0 | 0.00 | 0.00 | 0.00 | 39 | 1011.6 |
| 20260506132024 | 67 | 0 | 3.0 | 7.0 | 0.00 | 0.00 | 0.00 | 38 | 1011.7 |
| 20260506131555 | 66 | 38 | 0.0 | 5.0 | 0.00 | 0.00 | 0.00 | 40 | 1011.8 |
| 20260506131025 | 66 | 9 | 2.0 | 6.0 | 0.00 | 0.00 | 0.00 | 40 | 1011.8 |
| 20260506130527 | 66 | 0 | 3.0 | 9.0 | 0.00 | 0.00 | 0.00 | 40 | 1011.9 |
| 20260506130043 | 67 | 328 | 4.0 | 9.0 | 0.00 | 0.00 | 0.00 | 40 | 1011.9 |
| 20260506125527 | 67 | 350 | 3.0 | 9.0 | 0.00 | 0.00 | 0.00 | 40 | 1012.0 |
| 20260506125028 | 68 | 25 | 4.0 | 9.0 | 0.00 | 0.00 | 0.00 | 40 | 1012.0 |
| 20260506124538 | 68 | 20 | 5.0 | 9.0 | 0.00 | 0.00 | 0.00 | 41 | 1012.0 |
| 20260506124028 | 68 | 58 | 4.0 | 8.0 | 0.00 | 0.00 | 0.00 | 41 | 1012.0 |
| 20260506123531 | 67 | 202 | 0.0 | 3.0 | 0.00 | 0.00 | 0.00 | 40 | 1012.2 |
| 20260506123046 | 67 | 0 | 1.0 | 7.0 | 0.00 | 0.00 | 0.00 | 41 | 1012.3 |
| 20260506122531 | 67 | 0 | 2.0 | 7.0 | 0.00 | 0.00 | 0.00 | 40 | 1012.3 |
| 20260506122028 | 68 | 154 | 2.0 | 5.0 | 0.00 | 0.00 | 0.00 | 40 | 1012.5 |
| 20260506121543 | 68 | 149 | 0.0 | 3.0 | 0.00 | 0.00 | 0.00 | 40 | 1012.5 |
| 20260506121028 | 68 | 0 | 0.0 | 3.0 | 0.00 | 0.00 | 0.00 | 40 | 1012.6 |
| 20260506120532 | 67 | 0 | 0.0 | 5.0 | 0.00 | 0.00 | 0.00 | 43 | 1012.6 |
| 20260506120040 | 66 | 0 | 2.0 | 5.0 | 0.00 | 0.00 | 0.00 | 44 | 1012.7 |
| 20260506115529 | 66 | 78 | 2.0 | 4.0 | 0.00 | 0.00 | 0.00 | 43 | 1012.7 |
| 20260506115028 | 66 | 90 | 2.0 | 4.0 | 0.00 | 0.00 | 0.00 | 44 | 1012.7 |
| 20260506114539 | 65 | 17 | 1.0 | 7.0 | 0.00 | 0.00 | 0.00 | 45 | 1012.7 |
| 20260506114031 | 65 | 0 | 3.0 | 9.0 | 0.00 | 0.00 | 0.00 | 44 | 1012.8 |
| 20260506113527 | 66 | 27 | 4.0 | 9.0 | 0.00 | 0.00 | 0.00 | 44 | 1012.8 |
| 20260506113039 | 66 | 0 | 1.0 | 4.0 | 0.00 | 0.00 | 0.00 | 44 | 1013.0 |
| 20260506112529 | 65 | 0 | 1.0 | 8.0 | 0.00 | 0.00 | 0.00 | 44 | 1012.9 |
| 20260506112028 | 64 | 102 | 1.0 | 11.0 | 0.00 | 0.00 | 0.00 | 44 | 1012.9 |
| 20260506111538 | 64 | 81 | 4.0 | 11.0 | 0.00 | 0.00 | 0.00 | 45 | 1012.9 |
| 20260506111030 | 64 | 61 | 2.0 | 7.0 | 0.00 | 0.00 | 0.00 | 46 | 1013.1 |
| 20260506110532 | 65 | 23 | 2.0 | 8.0 | 0.00 | 0.00 | 0.00 | 45 | 1013.1 |
| 20260506110042 | 65 | 348 | 3.0 | 8.0 | 0.00 | 0.00 | 0.00 | 45 | 1013.1 |
| 20260506105527 | 65 | 5 | 3.0 | 9.0 | 0.00 | 0.00 | 0.00 | 45 | 1013.0 |
| 20260506105030 | 65 | 0 | 3.0 | 9.0 | 0.00 | 0.00 | 0.00 | 46 | 1013.1 |
| 20260506104546 | 64 | 92 | 3.0 | 8.0 | 0.00 | 0.00 | 0.00 | 47 | 1013.1 |
| 20260506104027 | 64 | 331 | 1.0 | 8.0 | 0.00 | 0.00 | 0.00 | 47 | 1013.1 |
| 20260506103524 | 64 | 52 | 3.0 | 8.0 | 0.00 | 0.00 | 0.00 | 48 | 1013.1 |
| 20260506103041 | 64 | 0 | 0.0 | 7.0 | 0.00 | 0.00 | 0.00 | 48 | 1013.1 |
| 20260506102528 | 63 | 80 | 2.0 | 7.0 | 0.00 | 0.00 | 0.00 | 49 | 1013.1 |
| 20260506102028 | 63 | 105 | 2.0 | 7.0 | 0.00 | 0.00 | 0.00 | 50 | 1013.2 |
| 20260506101539 | 63 | 114 | 2.0 | 8.0 | 0.00 | 0.00 | 0.00 | 49 | 1013.4 |
| 20260506101028 | 62 | 88 | 2.0 | 9.0 | 0.00 | 0.00 | 0.00 | 50 | 1013.4 |
| 20260506100529 | 62 | 81 | 3.0 | 9.0 | 0.00 | 0.00 | 0.00 | 51 | 1013.5 |
| 20260506100046 | 62 | 42 | 0.0 | 4.0 | 0.00 | 0.00 | 0.00 | 53 | 1013.4 |
| 20260506095528 | 62 | 0 | 0.0 | 6.0 | 0.00 | 0.00 | 0.00 | 54 | 1013.3 |
| 20260506095027 | 61 | 329 | 3.0 | 8.0 | 0.00 | 0.00 | 0.00 | 54 | 1013.4 |
| 20260506094554 | 61 | 26 | 2.0 | 8.0 | 0.00 | 0.00 | 0.00 | 55 | 1013.4 |
| 20260506094028 | 61 | 16 | 3.0 | 8.0 | 0.00 | 0.00 | 0.00 | 55 | 1013.4 |
| 20260506093527 | 61 | 0 | 0.0 | 4.0 | 0.00 | 0.00 | 0.00 | 56 | 1013.4 |
| 20260506093041 | 60 | 0 | 1.0 | 5.0 | 0.00 | 0.00 | 0.00 | 56 | 1013.3 |
| 20260506092528 | 60 | 0 | 2.0 | 7.0 | 0.00 | 0.00 | 0.00 | 57 | 1013.4 |
| 20260506092028 | 60 | 5 | 3.0 | 7.0 | 0.00 | 0.00 | 0.00 | 59 | 1013.4 |
| 20260506091540 | 59 | 296 | 0.0 | 8.0 | 0.00 | 0.00 | 0.00 | 59 | 1013.3 |
| 20260506091030 | 59 | 0 | 2.0 | 8.0 | 0.00 | 0.00 | 0.00 | 60 | 1013.3 |
| 20260506090527 | 59 | 355 | 2.0 | 8.0 | 0.00 | 0.00 | 0.00 | 61 | 1013.2 |
| 20260506090039 | 58 | 350 | 2.0 | 7.0 | 0.00 | 0.00 | 0.00 | 62 | 1013.3 |
| 20260506085527 | 58 | 286 | 3.0 | 7.0 | 0.00 | 0.00 | 0.00 | 61 | 1013.4 |
| 20260506085027 | 58 | 360 | 1.0 | 7.0 | 0.00 | 0.00 | 0.00 | 62 | 1013.3 |
| 20260506084542 | 57 | 0 | 1.0 | 7.0 | 0.00 | 0.00 | 0.00 | 63 | 1013.5 |
| 20260506084028 | 57 | 329 | 3.0 | 7.0 | 0.00 | 0.00 | 0.00 | 62 | 1013.5 |